Regional Weather Roundup
Issued by NWS

Home | Current Version | Previous Version | Text Only | Print | Product List | Glossary Off
Versions: 1 2 3 4 5 6 7 8 9 10 11 12 13 14 15 16 17 18 19 20 21 22 23 24 25 26 27 28 29 30 31 32 33 34 35 36 37 38 39 40 41 42 43 44 45 46 47 48 49 50

000
ASUS45 KBOU 250707
RWRCO

WEATHER ROUNDUP FOR COLORADO
NATIONAL WEATHER SERVICE DENVER/BOULDER CO
1200 AM MST THU DEC 25 2014

NOTE: "FAIR" INDICATES FEW OR NO CLOUDS BELOW 12000 FEET WITH NO
SIGNIFICANT WEATHER AND/OR OBSTRUCTIONS TO VISIBILITY.

COZ001>005-013-030-031-250800-
...NORTHWEST COLORADO...

CITY           SKY/WX    TMP DP  RH WIND       PRES   REMARKS
CRAIG          CLOUDY    27  16  63 E9        29.58F WCI  18
HAYDEN         CLOUDY    23  16  74 SE10      29.57F WCI  12
MEEKER         CLOUDY    32  15  49 VRB5      29.59F WCI  27
MOUNT WERNER   NOT AVBL
STEAMBOAT SPGS CLOUDY    17  15  90 CALM      29.58F
WALDEN         PTCLDY    28  18  64 S18G24    29.55F WCI  16
$$

COZ006>008-011-250800-
...WEST CENTRAL VALLEYS...

CITY           SKY/WX    TMP DP  RH WIND       PRES   REMARKS
GRAND JUNCTION CLOUDY    28  20  71 S5        29.66F WCI  23
MONTROSE       CLOUDY    29  17  61 SE12      29.71S WCI  19
EAGLE          PTCLDY    14   9  79 CALM      29.67F
RIFLE          CLOUDY    25  17  72 CALM      29.68F
DELTA          CLOUDY    30  19  63 CALM      29.69F
NUCLA          CLOUDY    30  21  69 SE7       29.73F WCI  23
$$

COZ017>023-064>068-250800-
...SOUTHWEST COLORADO...

CITY           SKY/WX    TMP DP  RH WIND       PRES   REMARKS
DURANGO        MOCLDY    25  15  66 NE3       29.80F
CORTEZ         CLEAR     28  19  69 NE6       29.74F WCI  22
PAGOSA SPRINGS MOCLDY    16   8  69 CALM      29.80F
TELLURIDE      CLOUDY    32  18  57 E3        29.72F
WOLF CREEK PAS PTCLDY    12   3  67 MISG      29.75F
$$

COZ009-010-012-014-032>034-037-058>063-250800-
...CENTRAL COLORADO...

CITY           SKY/WX    TMP DP  RH WIND       PRES   REMARKS
ASPEN          MOCLDY    18  13  80 S6        29.60F WCI  10
BUENA VISTA    PTCLDY    24   8  52 SW7       29.63F WCI  15
COPPER MTN     CLOUDY    23  14  68 W5G16     29.66F WCI  17
BERTHOUD PASS  MOCLDY    16  10  79 MISG      29.61R
COTTONWOOD PAS PTCLDY    32  12  43 W14G25    29.63F WCI  22
GUNNISON       MOCLDY     1 -26  27 NE5       29.76F WCI  -8
KREMMLING      CLOUDY     1  -4  78 CALM      29.66F
LEADVILLE      MOCLDY    20  11  68 NE9       29.62F WCI   9
MONARCH PASS   PTCLDY    14  10  85 MISG      29.77F
SALIDA         PTCLDY    32   6  33 SW20G33   29.69F WCI  20
SUNLIGHT       CLOUDY   N/A N/A N/A MISG      29.64F
WILKERSON PASS PTCLDY    18  10  73 SW16G26   29.62F WCI   3
$$

COZ069>075-250800-
...SAN LUIS VALLEY/SANGRE DE CRISTO MOUNTAINS...

CITY           SKY/WX    TMP DP  RH WIND       PRES   REMARKS
ALAMOSA        MOCLDY    10   3  73 N3        29.75F
LA VETA PASS   PTCLDY    18   9  68 MISG      29.67F
SAGUACHE       PTCLDY     5   0  78 NW14      29.76F WCI -12
$$

COZ035-036-038>040-250800-
...NORTHERN COLORADO FRONT RANGE...

CITY           SKY/WX    TMP DP  RH WIND       PRES   REMARKS
DENVER INTL AP MOCLDY    40  16  37 SW20      29.44F
DMNS CITY PARK   N/A     36  16  44 SE3       29.45F
AURORA         MOCLDY    36  16  44 S14       29.46F
FRONT RANGE AP NOT AVBL
ERIE MUNI ARPT   N/A     49  14  24 W16G25    29.43F
BOULDER MUN AP PTCLDY    46  18  31 SW8       29.43F
CENTENNIAL     MOCLDY    35  15  44 SW7       29.47F WCI  29
BROOMFIELD     PTCLDY    41  16  36 SW10      29.46S
FORT COLLINS   MOCLDY    27  12  54 N3        29.45F
LONGMONT       MOCLDY    31  17  54 NE3       29.47F
$$

COZ041-046-047-076>085-087-088-250800-
...PIKES PEAK/PALMER DIVIDE AND SOUTHERN FOOTHILLS...

CITY           SKY/WX    TMP DP  RH WIND       PRES   REMARKS
COLO. SPRINGS  MOCLDY    35  13  40 E10       29.51F WCI  27
A. F. ACADEMY  PTCLDY    42   7  24 N13       29.51F
ELLICOTT       NOT AVBL
FALCON         MOCLDY    33  11  39 CALM      29.52F
FORT CARSON    PTCLDY    41  14  32 SW18G26   29.48F
LIMON          CLOUDY    27  21  78 CALM      29.48F
MONUMENT HILL  CLOUDY    36  12  38 W14       29.52F
TRINIDAD       CLOUDY    34  16  47 NW10      29.57F WCI  26
$$

COZ042>045-048>051-090-091-250800-
...NORTHEAST COLORADO...

CITY           SKY/WX    TMP DP  RH WIND       PRES   REMARKS
GREELEY ARPT   CLOUDY    21   9  58 CALM      29.43F
AKRON          CLOUDY    39  23  52 W15       29.44F
BURLINGTON     CLOUDY    34  21  59 S10       29.47F WCI  26
WRAY           CLOUDY    34  23  65 MISG      29.47F
STERLING       CLOUDY    27  25  93 CALM      29.46F
HOLYOKE        CLOUDY    32  25  74 CALM      29.48R
FORT MORGAN    CLOUDY    29  24  79 CALM      29.45F
$$

COZ086-089-092>099-250800-
...SOUTHEAST COLORADO...

CITY           SKY/WX    TMP DP  RH WIND       PRES   REMARKS
PUEBLO         MOCLDY    26  18  71 W5        29.51F WCI  20
LA JUNTA       CLOUDY    37  21  52 W9        29.51F
LAMAR          CLOUDY    30  22  72 W6        29.50F WCI  24
SPRINGFIELD      N/A     32  20  61 S7        29.52F WCI  26
$$


USA.gov is the U.S. government's official web portal to all federal, state and local government web resources and services.